Regional Weather Roundup
Issued by NWS

Home | Current Version | Previous Version | Graphics & Text | Print | Product List | Glossary On
Versions: 1 2 3 4 5 6 7 8 9 10 11 12 13 14 15 16 17 18 19 20 21 22 23 24 25 26 27 28 29 30 31 32 33 34 35 36 37 38 39 40 41 42 43 44 45 46 47 48 49 50
000
ASUS44 KMEG 202210
RWRTN
TENNESSEE HOURLY STATE WEATHER ROUNDUP
NATIONAL WEATHER SERVICE MEMPHIS TN
500 PM CDT SAT SEP 20 2014

TNZ002-004-019-021-049-052-054-088>092-202300-
WEST TENNESSEE

CITY           SKY/WX    TMP DP  RH WIND       PRES   REMARKS
MEMPHIS INTL   PTSUNNY   88  62  41 CALM      29.98F
NWS MEMPHIS      N/A     88 N/A N/A MISG        N/A
JACKSON        SUNNY     85  68  56 SW5       30.00F
DYERSBURG      MOSUNNY   86  63  45 S5        29.98F
UNION CITY     SUNNY     84  68  58 SW7       29.97F
PARIS          MOSUNNY   84  66  54 SW9       29.99F
HUNTINGDON     SUNNY     82  66  58 SW3       29.99F
LEXINGTON      SUNNY     81  70  69 CALM      30.00F
SAVANNAH       SUNNY     84  66  54 SE3       30.01F
$$

TNZ008-025-027-028-033-062-065-066-202300-
NORTH MIDDLE TENNESSEE

CITY           SKY/WX    TMP DP  RH WIND       PRES   REMARKS
NASHVILLE      PTSUNNY   84  64  50 W3        30.01F
DICKSON        MOSUNNY   82  66  57 W5        30.02F
PORTLAND       SUNNY     82  64  54 S9        30.00F
CLARKSVILLE    SUNNY     84  65  52 SW7       29.98F
LEBANON        MOSUNNY   85  63  47 NW6       30.00F
SMYRNA         SUNNY     86  64  47 SW6       30.01F
MURFREESBORO   MOSUNNY   85  61  44 SW5       30.01F
COOKEVILLE     SUNNY     84  64  51 CALM      30.04F
GALLATIN       MOSUNNY   86  66  50 SW5       30.02F
CROSSVILLE     SUNNY     79  59  50 W6        30.08F
$$

TNZ061-075-076-078-094-096-097-202300-
SOUTH MIDDLE TENNESSEE

CITY           SKY/WX    TMP DP  RH WIND       PRES   REMARKS
LEWISBURG      MOSUNNY   88  64  44 SW6       30.01F
FAYETTEVILLE   SUNNY     82  57  42 S5        30.04S
TULLAHOMA      SUNNY     82  61  47 SW3       30.05F
WINCHESTER     SUNNY     84  63  48 S5        30.04F
MCMINNVILLE    MOSUNNY   84  64  51 W3        30.04S
COLUMBIA       SUNNY     88  64  45 CALM      30.00S
SHELBYVILLE    SUNNY     88  64  45 W5        30.03F
$$

TNZ017-018-042-046-047-202300-
NORTHEAST TENNESSEE

CITY           SKY/WX    TMP DP  RH WIND       PRES   REMARKS
TRI CITIES     MOSUNNY   83  48  29 CALM      30.07F
ELIZABETHTON   CLEAR     77  55  47 CALM      30.07F
$$

TNZ012-013-036-069-073-074-202300-
CENTRAL EAST TENNESSEE

CITY           SKY/WX    TMP DP  RH WIND       PRES   REMARKS
KNOXVILLE      MOSUNNY   84  53  34 NE6       30.03F
OAK RIDGE      SUNNY     84  59  42 W3        30.05F
GATLINBURG     CLEAR     82  54  36 VRB3      30.03F
MORRISTOWN     CLEAR     81  57  44 N3        30.06F
$$

TNZ083-085-099-202300-
SOUTHEAST TENNESSEE

CITY           SKY/WX    TMP DP  RH WIND       PRES   REMARKS
CHATTANOOGA    MOSUNNY   84  58  40 CALM      30.04S
$$

SKY/WX REPORTED AS FAIR MEANS FEW OR NO CLOUDS BELOW
12 THOUSAND FEET.



USA.gov is the U.S. government's official web portal to all federal, state and local government web resources and services.